Year,Month,Day,Hour,Minute,Value (Times are PST for barometer in hPa)
2015,02,06,00,00,987.67
2015,02,06,00,01,987.57
2015,02,06,00,02,987.54
2015,02,06,00,03,987.47
2015,02,06,00,04,987.37
2015,02,06,00,05,987.30
2015,02,06,00,06,987.34
2015,02,06,00,07,987.40
2015,02,06,00,08,987.51
2015,02,06,00,09,987.44
2015,02,06,00,10,987.54
2015,02,06,00,11,987.47
2015,02,06,00,12,987.34
2015,02,06,00,13,987.30
2015,02,06,00,14,987.27
2015,02,06,00,15,987.20
2015,02,06,00,16,987.23
2015,02,06,00,17,987.37
2015,02,06,00,18,987.54
2015,02,06,00,19,987.74
2015,02,06,00,20,987.78
2015,02,06,00,21,987.71
2015,02,06,00,22,987.78
2015,02,06,00,23,987.78
2015,02,06,00,24,987.64
2015,02,06,00,25,987.64
2015,02,06,00,26,987.61
2015,02,06,00,27,987.54
2015,02,06,00,28,987.61
2015,02,06,00,29,987.57
2015,02,06,00,30,987.61
2015,02,06,00,31,987.54
2015,02,06,00,32,987.54
2015,02,06,00,33,987.61
2015,02,06,00,34,987.64
2015,02,06,00,35,987.64
2015,02,06,00,36,987.61
2015,02,06,00,37,987.61
2015,02,06,00,38,987.57
2015,02,06,00,39,987.57
2015,02,06,00,40,987.54
2015,02,06,00,41,987.61
2015,02,06,00,42,987.57
2015,02,06,00,43,987.64
2015,02,06,00,44,987.67
2015,02,06,00,45,987.61
2015,02,06,00,46,987.64
2015,02,06,00,47,987.57
2015,02,06,00,48,987.54
2015,02,06,00,49,987.57
2015,02,06,00,50,987.64
2015,02,06,00,51,987.64
2015,02,06,00,52,987.61
2015,02,06,00,53,987.57
2015,02,06,00,54,987.51
2015,02,06,00,55,987.44
2015,02,06,00,56,987.44
2015,02,06,00,57,987.44
2015,02,06,00,58,987.37
2015,02,06,00,59,987.37
2015,02,06,01,00,987.30
2015,02,06,01,01,987.34
2015,02,06,01,02,987.30
2015,02,06,01,03,987.34
2015,02,06,01,04,987.37
2015,02,06,01,05,987.34
2015,02,06,01,06,987.37
2015,02,06,01,07,987.37
2015,02,06,01,08,987.40
2015,02,06,01,09,987.34
2015,02,06,01,10,987.40
2015,02,06,01,11,987.30
2015,02,06,01,12,987.30
2015,02,06,01,13,987.30
2015,02,06,01,14,987.30
2015,02,06,01,15,987.37
2015,02,06,01,16,987.30
2015,02,06,01,17,987.30
2015,02,06,01,18,987.34
2015,02,06,01,19,987.34
2015,02,06,01,20,987.37
2015,02,06,01,21,987.27
2015,02,06,01,22,987.27
2015,02,06,01,23,987.27
2015,02,06,01,24,987.34
2015,02,06,01,25,987.40
2015,02,06,01,26,987.47
2015,02,06,01,27,987.51
2015,02,06,01,28,987.51
2015,02,06,01,29,987.44
2015,02,06,01,30,987.40
2015,02,06,01,31,987.34
2015,02,06,01,32,987.27
2015,02,06,01,33,987.34
2015,02,06,01,34,987.37
2015,02,06,01,35,987.44
2015,02,06,01,36,987.40
2015,02,06,01,37,987.37
2015,02,06,01,38,987.40
2015,02,06,01,39,987.44
2015,02,06,01,40,987.47
2015,02,06,01,41,987.40
2015,02,06,01,42,987.47
2015,02,06,01,43,987.44
2015,02,06,01,44,987.44
2015,02,06,01,45,987.44
2015,02,06,01,46,987.47
2015,02,06,01,47,987.57
2015,02,06,01,48,987.54
2015,02,06,01,49,987.64
2015,02,06,01,50,987.78
2015,02,06,01,51,987.71
2015,02,06,01,52,987.74
2015,02,06,01,53,987.71
2015,02,06,01,54,987.71
2015,02,06,01,55,987.57
2015,02,06,01,56,987.64
2015,02,06,01,57,987.54
2015,02,06,01,58,987.61
2015,02,06,01,59,987.61
2015,02,06,02,00,987.64
2015,02,06,02,01,987.61
2015,02,06,02,02,987.51
2015,02,06,02,03,987.51
2015,02,06,02,04,987.40
2015,02,06,02,05,987.37
2015,02,06,02,06,987.37
2015,02,06,02,07,987.44
2015,02,06,02,08,987.37
2015,02,06,02,09,987.30
2015,02,06,02,10,987.23
2015,02,06,02,11,987.20
2015,02,06,02,12,987.23
2015,02,06,02,13,987.30
2015,02,06,02,14,987.37
2015,02,06,02,15,987.40
2015,02,06,02,16,987.47
2015,02,06,02,17,987.47
2015,02,06,02,18,987.47
2015,02,06,02,19,987.47
2015,02,06,02,20,987.44
2015,02,06,02,21,987.51
2015,02,06,02,22,987.40
2015,02,06,02,23,987.34
2015,02,06,02,24,987.27
2015,02,06,02,25,987.34
2015,02,06,02,26,987.27
2015,02,06,02,27,987.34
2015,02,06,02,28,987.40
2015,02,06,02,29,987.51
2015,02,06,02,30,987.57
2015,02,06,02,31,987.54
2015,02,06,02,32,987.57
2015,02,06,02,33,987.57
2015,02,06,02,34,987.61
2015,02,06,02,35,987.64
2015,02,06,02,36,987.71
2015,02,06,02,37,987.64
2015,02,06,02,38,987.64
2015,02,06,02,39,987.71
2015,02,06,02,40,987.71
2015,02,06,02,41,987.67
2015,02,06,02,42,987.74
2015,02,06,02,43,987.84
2015,02,06,02,44,987.74
2015,02,06,02,45,987.84
2015,02,06,02,46,987.91
2015,02,06,02,47,987.91
2015,02,06,02,48,987.95
2015,02,06,02,49,987.95
2015,02,06,02,50,987.88
2015,02,06,02,51,987.74
2015,02,06,02,52,987.71
2015,02,06,02,53,987.57
2015,02,06,02,54,987.54
2015,02,06,02,55,987.47
2015,02,06,02,56,987.47
2015,02,06,02,57,987.47
2015,02,06,02,58,987.51
2015,02,06,02,59,987.54
2015,02,06,03,00,987.61
2015,02,06,03,01,987.64
2015,02,06,03,02,987.64
2015,02,06,03,03,987.71
2015,02,06,03,04,987.74
2015,02,06,03,05,987.71
2015,02,06,03,06,987.74
2015,02,06,03,07,987.71
2015,02,06,03,08,987.67
2015,02,06,03,09,987.71
2015,02,06,03,10,987.71
2015,02,06,03,11,987.64
2015,02,06,03,12,987.67
2015,02,06,03,13,987.67
2015,02,06,03,14,987.64
2015,02,06,03,15,987.61
2015,02,06,03,16,987.64
2015,02,06,03,17,987.57
2015,02,06,03,18,987.57
2015,02,06,03,19,987.57
2015,02,06,03,20,987.67
2015,02,06,03,21,987.71
2015,02,06,03,22,987.67
2015,02,06,03,23,987.64
2015,02,06,03,24,987.67
2015,02,06,03,25,987.64
2015,02,06,03,26,987.61
2015,02,06,03,27,987.61
2015,02,06,03,28,987.57
2015,02,06,03,29,987.51
2015,02,06,03,30,987.47
2015,02,06,03,31,987.44
2015,02,06,03,32,987.40
2015,02,06,03,33,987.37
2015,02,06,03,34,987.44
2015,02,06,03,35,987.40
2015,02,06,03,36,987.40
2015,02,06,03,37,987.30
2015,02,06,03,38,987.30
2015,02,06,03,39,987.30
2015,02,06,03,40,987.20
2015,02,06,03,41,987.23
2015,02,06,03,42,987.20
2015,02,06,03,43,987.20
2015,02,06,03,44,987.27
2015,02,06,03,45,987.27
2015,02,06,03,46,987.30
2015,02,06,03,47,987.34
2015,02,06,03,48,987.34
2015,02,06,03,49,987.30
2015,02,06,03,50,987.23
2015,02,06,03,51,987.10
2015,02,06,03,52,987.06
2015,02,06,03,53,987.00
2015,02,06,03,54,987.00
2015,02,06,03,55,987.03
2015,02,06,03,56,987.10
2015,02,06,03,57,987.10
2015,02,06,03,58,987.10
2015,02,06,03,59,987.10
2015,02,06,04,00,987.06
2015,02,06,04,01,987.06
2015,02,06,04,02,987.06
2015,02,06,04,03,987.10
2015,02,06,04,04,987.06
2015,02,06,04,05,987.13
2015,02,06,04,06,987.10
2015,02,06,04,07,987.13
2015,02,06,04,08,987.10
2015,02,06,04,09,987.06
2015,02,06,04,10,987.06
2015,02,06,04,11,987.03
2015,02,06,04,12,987.06
2015,02,06,04,13,987.10
2015,02,06,04,14,987.03
2015,02,06,04,15,987.00
2015,02,06,04,16,986.96
2015,02,06,04,17,986.96
2015,02,06,04,18,987.03
2015,02,06,04,19,987.03
2015,02,06,04,20,987.10
2015,02,06,04,21,987.06
2015,02,06,04,22,987.03
2015,02,06,04,23,987.00
2015,02,06,04,24,987.06
2015,02,06,04,25,987.03
2015,02,06,04,26,987.00
2015,02,06,04,27,986.90
2015,02,06,04,28,986.90
2015,02,06,04,29,986.90
2015,02,06,04,30,986.86
2015,02,06,04,31,986.93
2015,02,06,04,32,986.90
2015,02,06,04,33,986.86
2015,02,06,04,34,986.90
2015,02,06,04,35,986.86
2015,02,06,04,36,986.79
2015,02,06,04,37,986.79
2015,02,06,04,38,986.79
2015,02,06,04,39,986.76
2015,02,06,04,40,986.79
2015,02,06,04,41,986.79
2015,02,06,04,42,986.76
2015,02,06,04,43,986.76
2015,02,06,04,44,986.83
2015,02,06,04,45,986.83
2015,02,06,04,46,986.86
2015,02,06,04,47,986.93
2015,02,06,04,48,986.86
2015,02,06,04,49,986.83
2015,02,06,04,50,986.79
2015,02,06,04,51,986.73
2015,02,06,04,52,986.76
2015,02,06,04,53,986.79
2015,02,06,04,54,986.73
2015,02,06,04,55,986.76
2015,02,06,04,56,986.73
2015,02,06,04,57,986.62
2015,02,06,04,58,986.59
2015,02,06,04,59,986.52
2015,02,06,05,00,986.49
2015,02,06,05,01,986.42
2015,02,06,05,02,986.39
2015,02,06,05,03,986.39
2015,02,06,05,04,986.35
2015,02,06,05,05,986.32
2015,02,06,05,06,986.32
2015,02,06,05,07,986.29
2015,02,06,05,08,986.22
2015,02,06,05,09,986.18
2015,02,06,05,10,986.12
2015,02,06,05,11,986.12
2015,02,06,05,12,986.15
2015,02,06,05,13,986.12
2015,02,06,05,14,986.25
2015,02,06,05,15,986.29
2015,02,06,05,16,986.35
2015,02,06,05,17,986.35
2015,02,06,05,18,986.35
2015,02,06,05,19,986.32
2015,02,06,05,20,986.29
2015,02,06,05,21,986.29
2015,02,06,05,22,986.35
2015,02,06,05,23,986.32
2015,02,06,05,24,986.42
2015,02,06,05,25,986.39
2015,02,06,05,26,986.49
2015,02,06,05,27,986.49
2015,02,06,05,28,986.52
2015,02,06,05,29,986.56
2015,02,06,05,30,986.59
2015,02,06,05,31,986.59
2015,02,06,05,32,986.66
2015,02,06,05,33,986.59
2015,02,06,05,34,986.59
2015,02,06,05,35,986.52
2015,02,06,05,36,986.49
2015,02,06,05,37,986.46
2015,02,06,05,38,986.46
2015,02,06,05,39,986.49
2015,02,06,05,40,986.46
2015,02,06,05,41,986.46
2015,02,06,05,42,986.46
2015,02,06,05,43,986.46
2015,02,06,05,44,986.52
2015,02,06,05,45,986.52
2015,02,06,05,46,986.56
2015,02,06,05,47,986.49
2015,02,06,05,48,986.52
2015,02,06,05,49,986.46
2015,02,06,05,50,986.46
2015,02,06,05,51,986.39
2015,02,06,05,52,986.35
2015,02,06,05,53,986.29
2015,02,06,05,54,986.32
2015,02,06,05,55,986.18
2015,02,06,05,56,986.22
2015,02,06,05,57,986.18
2015,02,06,05,58,986.15
2015,02,06,05,59,986.08
2015,02,06,06,00,986.05
2015,02,06,06,01,985.95
2015,02,06,06,02,985.98
2015,02,06,06,03,985.95
2015,02,06,06,04,985.95
2015,02,06,06,05,985.91
2015,02,06,06,06,985.85
2015,02,06,06,07,985.74
2015,02,06,06,08,985.74
2015,02,06,06,09,985.78
2015,02,06,06,10,985.78
2015,02,06,06,11,985.74
2015,02,06,06,12,985.64
2015,02,06,06,13,985.64
2015,02,06,06,14,985.64
2015,02,06,06,15,985.68
2015,02,06,06,16,985.78
2015,02,06,06,17,985.78
2015,02,06,06,18,985.81
2015,02,06,06,19,985.85
2015,02,06,06,20,985.78
2015,02,06,06,21,985.71
2015,02,06,06,22,985.74
2015,02,06,06,23,985.74
2015,02,06,06,24,985.71
2015,02,06,06,25,985.64
2015,02,06,06,26,985.68
2015,02,06,06,27,985.54
2015,02,06,06,28,985.61
2015,02,06,06,29,985.51
2015,02,06,06,30,985.47
2015,02,06,06,31,985.34
2015,02,06,06,32,985.34
2015,02,06,06,33,985.30
2015,02,06,06,34,985.30
2015,02,06,06,35,985.30
2015,02,06,06,36,985.27
2015,02,06,06,37,985.17
2015,02,06,06,38,985.17
2015,02,06,06,39,985.13
2015,02,06,06,40,985.13
2015,02,06,06,41,985.20
2015,02,06,06,42,985.20
2015,02,06,06,43,985.20
2015,02,06,06,44,985.20
2015,02,06,06,45,985.17
2015,02,06,06,46,985.13
2015,02,06,06,47,985.07
2015,02,06,06,48,985.07
2015,02,06,06,49,985.03
2015,02,06,06,50,984.97
2015,02,06,06,51,984.90
2015,02,06,06,52,984.90
2015,02,06,06,53,984.90
2015,02,06,06,54,984.83
2015,02,06,06,55,984.76
2015,02,06,06,56,984.76
2015,02,06,06,57,984.69
2015,02,06,06,58,984.66
2015,02,06,06,59,984.66
2015,02,06,07,00,984.73
2015,02,06,07,01,984.73
2015,02,06,07,02,984.76
2015,02,06,07,03,984.80
2015,02,06,07,04,984.80
2015,02,06,07,05,984.80
2015,02,06,07,06,984.83
2015,02,06,07,07,984.86
2015,02,06,07,08,984.86
2015,02,06,07,09,984.90
2015,02,06,07,10,984.90
2015,02,06,07,11,984.90
2015,02,06,07,12,984.90
2015,02,06,07,13,984.93
2015,02,06,07,14,984.90
2015,02,06,07,15,984.90
2015,02,06,07,16,984.93
2015,02,06,07,17,984.90
2015,02,06,07,18,984.93
2015,02,06,07,19,984.90
2015,02,06,07,20,984.86
2015,02,06,07,21,984.80
2015,02,06,07,22,984.83
2015,02,06,07,23,984.76
2015,02,06,07,24,984.76
2015,02,06,07,25,984.76
2015,02,06,07,26,984.76
2015,02,06,07,27,984.76
2015,02,06,07,28,984.73
2015,02,06,07,29,984.73
2015,02,06,07,30,984.69
2015,02,06,07,31,984.76
2015,02,06,07,32,984.76
2015,02,06,07,33,984.76
2015,02,06,07,34,984.76
2015,02,06,07,35,984.80
2015,02,06,07,36,984.73
2015,02,06,07,37,984.83
2015,02,06,07,38,984.83
2015,02,06,07,39,984.86
2015,02,06,07,40,984.90
2015,02,06,07,41,984.86
2015,02,06,07,42,984.93
2015,02,06,07,43,984.93
2015,02,06,07,44,984.93
2015,02,06,07,45,984.97
2015,02,06,07,46,985.03
2015,02,06,07,47,985.13
2015,02,06,07,48,985.10
2015,02,06,07,49,985.10
2015,02,06,07,50,985.13
2015,02,06,07,51,985.13
2015,02,06,07,52,985.17
2015,02,06,07,53,985.13
2015,02,06,07,54,985.17
2015,02,06,07,55,985.13
2015,02,06,07,56,985.07
2015,02,06,07,57,985.10
2015,02,06,07,58,985.10
2015,02,06,07,59,985.03
2015,02,06,08,00,984.93
2015,02,06,08,01,984.90
2015,02,06,08,02,984.83
2015,02,06,08,03,984.83
2015,02,06,08,04,984.90
2015,02,06,08,05,984.86
2015,02,06,08,06,984.80
2015,02,06,08,07,984.73
2015,02,06,08,08,984.59
2015,02,06,08,09,984.53
2015,02,06,08,10,984.46
2015,02,06,08,11,984.49
2015,02,06,08,12,984.49
2015,02,06,08,13,984.56
2015,02,06,08,14,984.53
2015,02,06,08,15,984.59
2015,02,06,08,16,984.63
2015,02,06,08,17,984.73
2015,02,06,08,18,984.66
2015,02,06,08,19,984.56
2015,02,06,08,20,984.49
2015,02,06,08,21,984.46
2015,02,06,08,22,984.49
2015,02,06,08,23,984.49
2015,02,06,08,24,984.56
2015,02,06,08,25,984.56
2015,02,06,08,26,984.68
2015,02,06,08,27,984.73
2015,02,06,08,28,984.69
2015,02,06,08,29,984.63
2015,02,06,08,30,984.56
2015,02,06,08,31,984.49
2015,02,06,08,32,984.65
2015,02,06,08,33,984.86
2015,02,06,08,34,984.83
2015,02,06,08,35,984.73
2015,02,06,08,36,984.69
2015,02,06,08,37,984.66
2015,02,06,08,38,984.66
2015,02,06,08,39,984.73
2015,02,06,08,40,984.73
2015,02,06,08,41,984.76
2015,02,06,08,42,984.73
2015,02,06,08,43,984.73
2015,02,06,08,44,984.76
2015,02,06,08,45,984.90
2015,02,06,08,46,984.86
2015,02,06,08,47,984.83
2015,02,06,08,48,984.80
2015,02,06,08,49,984.93
2015,02,06,08,50,985.00
2015,02,06,08,51,985.03
2015,02,06,08,52,985.00
2015,02,06,08,53,985.03
2015,02,06,08,54,985.03
2015,02,06,08,55,985.00
2015,02,06,08,56,985.03
2015,02,06,08,57,984.97
2015,02,06,08,58,984.93
2015,02,06,08,59,985.00
2015,02,06,09,00,985.07
2015,02,06,09,01,984.97
2015,02,06,09,02,984.97
2015,02,06,09,03,984.93
2015,02,06,09,04,985.07
2015,02,06,09,05,985.10
2015,02,06,09,06,985.10
2015,02,06,09,07,985.03
2015,02,06,09,08,985.07
2015,02,06,09,09,985.03
2015,02,06,09,10,985.00
2015,02,06,09,11,985.03
2015,02,06,09,12,984.90
2015,02,06,09,13,984.93
2015,02,06,09,14,985.00
2015,02,06,09,15,985.10
2015,02,06,09,16,985.07
2015,02,06,09,17,985.10
2015,02,06,09,18,985.10
2015,02,06,09,19,985.10
2015,02,06,09,20,985.13
2015,02,06,09,21,985.10
2015,02,06,09,22,985.10
2015,02,06,09,23,985.13
2015,02,06,09,24,985.17
2015,02,06,09,25,985.13
2015,02,06,09,26,985.13
2015,02,06,09,27,985.17
2015,02,06,09,28,985.17
2015,02,06,09,29,985.20
2015,02,06,09,30,985.34
2015,02,06,09,31,985.27
2015,02,06,09,32,985.17
2015,02,06,09,33,985.20
2015,02,06,09,34,985.13
2015,02,06,09,35,985.07
2015,02,06,09,36,985.00
2015,02,06,09,37,984.93
2015,02,06,09,38,984.93
2015,02,06,09,39,985.13
2015,02,06,09,40,985.17
2015,02,06,09,41,985.13
2015,02,06,09,42,985.13
2015,02,06,09,43,985.17
2015,02,06,09,44,985.13
2015,02,06,09,45,985.13
2015,02,06,09,46,985.20
2015,02,06,09,47,985.27
2015,02,06,09,48,985.30
2015,02,06,09,49,985.24
2015,02,06,09,50,985.27
2015,02,06,09,51,985.37
2015,02,06,09,52,985.47
2015,02,06,09,53,985.47
2015,02,06,09,54,985.54
2015,02,06,09,55,985.61
2015,02,06,09,56,985.68
2015,02,06,09,57,985.78
2015,02,06,09,58,985.85
2015,02,06,09,59,985.85
2015,02,06,10,00,985.95
2015,02,06,10,01,985.91
2015,02,06,10,02,985.91
2015,02,06,10,03,985.85
2015,02,06,10,04,985.91
2015,02,06,10,05,985.95
2015,02,06,10,06,985.98
2015,02,06,10,07,986.11
2015,02,06,10,08,986.15
2015,02,06,10,09,986.15
2015,02,06,10,10,986.12
2015,02,06,10,11,986.12
2015,02,06,10,12,986.05
2015,02,06,10,13,986.08
2015,02,06,10,14,986.08
2015,02,06,10,15,986.18
2015,02,06,10,16,986.32
2015,02,06,10,17,986.32
2015,02,06,10,18,986.29
2015,02,06,10,19,986.12
2015,02,06,10,20,986.02
2015,02,06,10,21,986.18
2015,02,06,10,22,986.18
2015,02,06,10,23,986.25
2015,02,06,10,24,986.22
2015,02,06,10,25,986.18
2015,02,06,10,26,986.15
2015,02,06,10,27,986.08
2015,02,06,10,28,985.92
2015,02,06,10,29,985.78
2015,02,06,10,30,985.55
2015,02,06,10,31,985.61
2015,02,06,10,32,985.73
2015,02,06,10,33,985.78
2015,02,06,10,34,985.68
2015,02,06,10,35,985.64
2015,02,06,10,36,985.68
2015,02,06,10,37,985.88
2015,02,06,10,38,986.04
2015,02,06,10,39,986.17
2015,02,06,10,40,986.22
2015,02,06,10,41,986.15
2015,02,06,10,42,986.15
2015,02,06,10,43,986.25
2015,02,06,10,44,986.32
2015,02,06,10,45,986.35
2015,02,06,10,46,986.39
2015,02,06,10,47,986.39
2015,02,06,10,48,986.42
2015,02,06,10,49,986.32
2015,02,06,10,50,986.29
2015,02,06,10,51,986.25
2015,02,06,10,52,986.25
2015,02,06,10,53,986.25
2015,02,06,10,54,986.29
2015,02,06,10,55,986.39
2015,02,06,10,56,986.42
2015,02,06,10,57,986.42
2015,02,06,10,58,986.49
2015,02,06,10,59,986.46
2015,02,06,11,00,986.46
2015,02,06,11,01,986.46
2015,02,06,11,02,986.42
2015,02,06,11,03,986.49
2015,02,06,11,04,986.49
2015,02,06,11,05,986.59
2015,02,06,11,06,986.59
2015,02,06,11,07,986.59
2015,02,06,11,08,986.56
2015,02,06,11,09,986.62
2015,02,06,11,10,986.56
2015,02,06,11,11,986.49
2015,02,06,11,12,986.49
2015,02,06,11,13,986.52
2015,02,06,11,14,986.56
2015,02,06,11,15,986.62
2015,02,06,11,16,986.66
2015,02,06,11,17,986.66
2015,02,06,11,18,986.66
2015,02,06,11,19,986.62
2015,02,06,11,20,986.62
2015,02,06,11,21,986.62
2015,02,06,11,22,986.62
2015,02,06,11,23,986.69
2015,02,06,11,24,986.69
2015,02,06,11,25,986.62
2015,02,06,11,26,986.62
2015,02,06,11,27,986.62
2015,02,06,11,28,986.59
2015,02,06,11,29,986.56
2015,02,06,11,30,986.62
2015,02,06,11,31,986.66
2015,02,06,11,32,986.69
2015,02,06,11,33,986.66
2015,02,06,11,34,986.66
2015,02,06,11,35,986.62
2015,02,06,11,36,986.62
2015,02,06,11,37,986.66
2015,02,06,11,38,986.69
2015,02,06,11,39,986.69
2015,02,06,11,40,986.66
2015,02,06,11,41,986.59
2015,02,06,11,42,986.49
2015,02,06,11,43,986.46
2015,02,06,11,44,986.42
2015,02,06,11,45,986.42
2015,02,06,11,46,986.35
2015,02,06,11,47,986.32
2015,02,06,11,48,986.32
2015,02,06,11,49,986.29
2015,02,06,11,50,986.22
2015,02,06,11,51,986.22
2015,02,06,11,52,986.25
2015,02,06,11,53,986.25
2015,02,06,11,54,986.32
2015,02,06,11,55,986.29
2015,02,06,11,56,986.25
2015,02,06,11,57,986.22
2015,02,06,11,58,986.08
2015,02,06,11,59,986.05
2015,02,06,12,00,985.98
2015,02,06,12,01,985.98
2015,02,06,12,02,985.91
2015,02,06,12,03,985.98
2015,02,06,12,04,985.98
2015,02,06,12,05,985.98
2015,02,06,12,06,985.98
2015,02,06,12,07,985.88
2015,02,06,12,08,985.85
2015,02,06,12,09,985.85
2015,02,06,12,10,985.88
2015,02,06,12,11,985.91
2015,02,06,12,12,985.98
2015,02,06,12,13,986.02
2015,02,06,12,14,986.05
2015,02,06,12,15,986.08
2015,02,06,12,16,986.05
2015,02,06,12,17,986.08
2015,02,06,12,18,986.12
2015,02,06,12,19,986.12
2015,02,06,12,20,986.05
2015,02,06,12,21,986.08
2015,02,06,12,22,986.08
2015,02,06,12,23,986.15
2015,02,06,12,24,986.15
2015,02,06,12,25,986.18
2015,02,06,12,26,986.18
2015,02,06,12,27,986.08
2015,02,06,12,28,986.08
2015,02,06,12,29,986.12
2015,02,06,12,30,986.05
2015,02,06,12,31,986.08
2015,02,06,12,32,986.05
2015,02,06,12,33,986.08
2015,02,06,12,34,986.12
2015,02,06,12,35,986.18
2015,02,06,12,36,986.25
2015,02,06,12,37,986.25
2015,02,06,12,38,986.32
2015,02,06,12,39,986.22
2015,02,06,12,40,986.18
2015,02,06,12,41,986.15
2015,02,06,12,42,986.18
2015,02,06,12,43,986.25
2015,02,06,12,44,986.22
2015,02,06,12,45,986.18
2015,02,06,12,46,986.29
2015,02,06,12,47,986.32
2015,02,06,12,48,986.35
2015,02,06,12,49,986.42
2015,02,06,12,50,986.35
2015,02,06,12,51,986.32
2015,02,06,12,52,986.32
2015,02,06,12,53,986.35
2015,02,06,12,54,986.39
2015,02,06,12,55,986.46
2015,02,06,12,56,986.46
2015,02,06,12,57,986.39
2015,02,06,12,58,986.32
2015,02,06,12,59,986.29
2015,02,06,13,00,986.32
2015,02,06,13,01,986.29
2015,02,06,13,02,986.41
2015,02,06,13,03,986.49
2015,02,06,13,04,986.52
2015,02,06,13,05,986.40
2015,02,06,13,06,986.46
2015,02,06,13,07,986.52
2015,02,06,13,08,986.52
2015,02,06,13,09,986.49
2015,02,06,13,10,986.49
2015,02,06,13,11,986.49
2015,02,06,13,12,986.56
2015,02,06,13,13,986.46
2015,02,06,13,14,986.46
2015,02,06,13,15,986.46
2015,02,06,13,16,986.46
2015,02,06,13,17,986.49
2015,02,06,13,18,986.46
2015,02,06,13,19,986.46
2015,02,06,13,20,986.46
2015,02,06,13,21,986.46
2015,02,06,13,22,986.52
2015,02,06,13,23,986.52
2015,02,06,13,24,986.52
2015,02,06,13,25,986.56
2015,02,06,13,26,986.56
2015,02,06,13,27,986.59
2015,02,06,13,28,986.59
2015,02,06,13,29,986.62
2015,02,06,13,30,986.69
2015,02,06,13,31,986.73
2015,02,06,13,32,986.73
2015,02,06,13,33,986.76
2015,02,06,13,34,986.73
2015,02,06,13,35,986.62
2015,02,06,13,36,986.62
2015,02,06,13,37,986.66
2015,02,06,13,38,986.62
2015,02,06,13,39,986.62
2015,02,06,13,40,986.66
2015,02,06,13,41,986.62
2015,02,06,13,42,986.62
2015,02,06,13,43,986.69
2015,02,06,13,44,986.66
2015,02,06,13,45,986.62
2015,02,06,13,46,986.62
2015,02,06,13,47,986.59
2015,02,06,13,48,986.62
2015,02,06,13,49,986.59
2015,02,06,13,50,986.66
2015,02,06,13,51,986.69
2015,02,06,13,52,986.69
2015,02,06,13,53,986.69
2015,02,06,13,54,986.79
2015,02,06,13,55,986.73
2015,02,06,13,56,986.69
2015,02,06,13,57,986.66
2015,02,06,13,58,986.62
2015,02,06,13,59,986.69
2015,02,06,14,00,986.76
2015,02,06,14,01,986.76
2015,02,06,14,02,986.73
2015,02,06,14,03,986.73
2015,02,06,14,04,986.69
2015,02,06,14,05,986.83
2015,02,06,14,06,986.83
2015,02,06,14,07,986.86
2015,02,06,14,08,986.93
2015,02,06,14,09,986.93
2015,02,06,14,10,986.96
2015,02,06,14,11,986.93
2015,02,06,14,12,986.93
2015,02,06,14,13,986.96
2015,02,06,14,14,986.93
2015,02,06,14,15,986.93
2015,02,06,14,16,987.00
2015,02,06,14,17,987.03
2015,02,06,14,18,987.06
2015,02,06,14,19,987.03
2015,02,06,14,20,987.03
2015,02,06,14,21,987.03
2015,02,06,14,22,987.03
2015,02,06,14,23,987.00
2015,02,06,14,24,987.00
2015,02,06,14,25,986.93
2015,02,06,14,26,986.93
2015,02,06,14,27,986.93
2015,02,06,14,28,986.90
2015,02,06,14,29,986.86
2015,02,06,14,30,986.96
2015,02,06,14,31,987.00
2015,02,06,14,32,987.00
2015,02,06,14,33,987.06
2015,02,06,14,34,987.03
2015,02,06,14,35,987.03
2015,02,06,14,36,987.13
2015,02,06,14,37,987.10
2015,02,06,14,38,987.13
2015,02,06,14,39,987.17
2015,02,06,14,40,987.20
2015,02,06,14,41,987.20
2015,02,06,14,42,987.10
2015,02,06,14,43,987.13
2015,02,06,14,44,987.13
2015,02,06,14,45,987.20
2015,02,06,14,46,987.20
2015,02,06,14,47,987.23
2015,02,06,14,48,987.27
2015,02,06,14,49,987.23
2015,02,06,14,50,987.20
2015,02,06,14,51,987.30
2015,02,06,14,52,987.20
2015,02,06,14,53,987.30
2015,02,06,14,54,987.34
2015,02,06,14,55,987.37
2015,02,06,14,56,987.37
2015,02,06,14,57,987.37
2015,02,06,14,58,987.37
2015,02,06,14,59,987.27
2015,02,06,15,00,987.23
2015,02,06,15,01,987.23
2015,02,06,15,02,987.23
2015,02,06,15,03,987.34
2015,02,06,15,04,987.34
2015,02,06,15,05,987.40
2015,02,06,15,06,987.40
2015,02,06,15,07,987.37
2015,02,06,15,08,987.44
2015,02,06,15,09,987.57
2015,02,06,15,10,987.51
2015,02,06,15,11,987.40
2015,02,06,15,12,987.40
2015,02,06,15,13,987.37
2015,02,06,15,14,987.34
2015,02,06,15,15,987.40
2015,02,06,15,16,987.44
2015,02,06,15,17,987.47
2015,02,06,15,18,987.54
2015,02,06,15,19,987.57
2015,02,06,15,20,987.57
2015,02,06,15,21,987.61
2015,02,06,15,22,987.61
2015,02,06,15,23,987.64
2015,02,06,15,24,987.54
2015,02,06,15,25,987.57
2015,02,06,15,26,987.57
2015,02,06,15,27,987.64
2015,02,06,15,28,987.64
2015,02,06,15,29,987.64
2015,02,06,15,30,987.67
2015,02,06,15,31,987.67
2015,02,06,15,32,987.67
2015,02,06,15,33,987.67
2015,02,06,15,34,987.74
2015,02,06,15,35,987.74
2015,02,06,15,36,987.74
2015,02,06,15,37,987.74
2015,02,06,15,38,987.74
2015,02,06,15,39,987.78
2015,02,06,15,40,987.78
2015,02,06,15,41,987.84
2015,02,06,15,42,987.84
2015,02,06,15,43,987.88
2015,02,06,15,44,987.84
2015,02,06,15,45,987.81
2015,02,06,15,46,987.88
2015,02,06,15,47,987.88
2015,02,06,15,48,987.81
2015,02,06,15,49,987.84
2015,02,06,15,50,987.95
2015,02,06,15,51,988.01
2015,02,06,15,52,988.01
2015,02,06,15,53,988.01
2015,02,06,15,54,988.05
2015,02,06,15,55,987.91
2015,02,06,15,56,987.95
2015,02,06,15,57,987.91
2015,02,06,15,58,987.88
2015,02,06,15,59,987.91
2015,02,06,16,00,987.98
2015,02,06,16,01,988.10
2015,02,06,16,02,988.11
2015,02,06,16,03,988.15
2015,02,06,16,04,988.15
2015,02,06,16,05,988.18
2015,02,06,16,06,988.18
2015,02,06,16,07,988.22
2015,02,06,16,08,988.28
2015,02,06,16,09,988.28
2015,02,06,16,10,988.16
2015,02,06,16,11,988.02
2015,02,06,16,12,987.95
2015,02,06,16,13,987.98
2015,02,06,16,14,988.08
2015,02,06,16,15,988.11
2015,02,06,16,16,988.11
2015,02,06,16,17,988.11
2015,02,06,16,18,988.15
2015,02,06,16,19,988.15
2015,02,06,16,20,988.18
2015,02,06,16,21,988.15
2015,02,06,16,22,988.18
2015,02,06,16,23,988.11
2015,02,06,16,24,988.08
2015,02,06,16,25,988.08
2015,02,06,16,26,987.96
2015,02,06,16,27,988.01
2015,02,06,16,28,988.11
2015,02,06,16,29,988.15
2015,02,06,16,30,988.22
2015,02,06,16,31,988.22
2015,02,06,16,32,988.22
2015,02,06,16,33,988.18
2015,02,06,16,34,988.28
2015,02,06,16,35,988.28
2015,02,06,16,36,988.28